Regional Weather Roundup
Issued by NWS Charleston, SC

Current Version | Previous Version | Text Only | Print | Product List | Glossary Off
Versions: 1 2 3 4 5 6 7 8 9 10 11 12 13 14 15 16 17 18 19 20 21 22 23 24 25 26 27 28 29 30 31 32 33 34 35 36 37 38 39 40 41 42 43 44 45 46 47 48 49 50
000 ASUS42 KCHS 190027 RWRCHS Regional Weather Roundup National Weather Service Charleston SC 700 PM EST SUN FEB 18 2018 NOTE: "fair" indicates few or no clouds below 12,000 feet with no significant weather and/or obstructions to visibility. Not all stations are quality controlled. Use data with caution, especially dewpoint observations. SCZ027-030-031-034>040-042>050-190100- ...Southeast South Carolina... CITY SKY/WX TMP DP RH WIND PRES REMARKS N Charleston CLOUDY 60 50 69 E12G20 30.33R 6HR MIN TEMP: 60; 6HR MAX TEMP: 66; Waterfront Prk N/A 59 53 80 NE13 30.17R Mount Pleasant CLOUDY 59 52 77 E5 30.33R Johns Island CLOUDY 59 52 77 NE13 30.33R Pinopolis N/A 57 48 72 E7 30.25R Moncks Corner CLOUDY 57 45 62 E5 30.34R Summerville CLOUDY 57 50 77 NE3 30.35R Beaufort MCAS CLOUDY 62 57 83 E7 30.31R 6HR MIN TEMP: 62; 6HR MAX TEMP: 69; Beaufort Arpt CLOUDY 61 54 77 NE10G16 30.32R Hilton Head Is NOT AVBL Walterboro CLOUDY 59 52 77 E8 30.34R Allendale CLOUDY 59 54 82 CALM 30.31R ...Southern Midlands and Pee Dee... CITY SKY/WX TMP DP RH WIND PRES REMARKS Georgetown CLOUDY 55 54 94 E9G16 30.36R Kingstree CLOUDY 55 45 67 E9 30.36R Orangeburg CLOUDY 60 47 61 SE7 30.33R 6HR MIN TEMP: 60; 6HR MAX TEMP: 67; 6HR PCP: TRACE; Barnwell DRIZZLE 59 59 100 E9 30.32R Aiken DRIZZLE 61 52 72 SE9 30.34R Manning CLOUDY 59 30 33 MISG 30.34S Columbia CLOUDY 65 52 62 SE12 30.30R 6HR MIN TEMP: 65; 6HR MAX TEMP: 71; Sumter CLOUDY 62 52 70 SE12 30.31R 6HR MIN TEMP: 62; 6HR MAX TEMP: 67; Florence CLOUDY 59 50 72 SE14 30.35R 6HR MIN TEMP: 59; 6HR MAX TEMP: 68; Myrtle Beach CLOUDY 54 49 83 E18G24 30.37R N Myrtle Beach CLOUDY 55 47 74 E10 30.36R 6HR MIN TEMP: 55; 6HR MAX TEMP: 60; 6HR PCP: 0.01; $$ GAZ063-065-086>088-099>101-113>116-118-119-134>141-150-190100- ...Southeast Georgia... CITY SKY/WX TMP DP RH WIND PRES REMARKS Savannah Arpt CLOUDY 62 57 83 E8 30.31R 6HR MIN TEMP: 62; 6HR MAX TEMP: 72; Hunter AAF CLOUDY 61 55 82 E6 30.29R 6HR MIN TEMP: 61; 6HR MAX TEMP: 71; Fort Stewart CLOUDY 62 58 87 E9 30.28S 6HR MIN TEMP: 62; 6HR MAX TEMP: 71; Statesboro CLOUDY 64 56 74 SE9 30.30R Sylvania CLOUDY 64 61 89 SE8 30.31R Claxton CLOUDY 64 60 85 E9G18 30.29R ...CSRA, Central and far Southeast Georgia... CITY SKY/WX TMP DP RH WIND PRES REMARKS Thomson CLOUDY 61 54 77 S6 30.34R Augusta-Bush LGT RAIN 61 58 90 SE6 30.29R 6HR MIN TEMP: 61; 6HR MAX TEMP: 70; 6HR PCP: TRACE; Augusta-Daniel LGT RAIN 63 56 78 SE8 30.30R Swainsboro CLOUDY 68 61 77 SE7 30.28R Vidalia MOCLDY 68 64 88 E6 30.27R Eastman FAIR 69 57 66 SE5 30.27R Hazlehurst FAIR 70 61 74 E5 30.24S Alma CLOUDY 72 64 76 NE6 30.24R 6HR MIN TEMP: 72; 6HR MAX TEMP: 80; Waycross FAIR 71 65 82 SE16G22 30.25R Jesup CLOUDY 66 59 77 E12 30.29R Baxley CLOUDY 68 68 100 E10 30.25R Brunswick CLOUDY 61 59 94 NE10 30.29S Saint Simons CLOUDY 63 62 97 NE9 30.28R FOG 6HR MIN TEMP: 63; 6HR MAX TEMP: 77; $$ SCZ027-028-034-036>038-045-046-048>050-GAZ119-141-190100- ...Lake and Supplemental Coastal Observations... STATION/POSITION TIME TEMP WIND PRES WAVE SWELL AIR SEA DIR/SP/G HT/PER HT/PER/DIR (UTC) (F) (DEG/KT/KT) (MB) (FT/S) (FT/S/D) Winyah Bay 2345 56 70/ 13 1028.0R Lake Murray 2320 64 110/ 4/ 8 1025.1 ACE Basin NERRS 2345 61 50/ 4 1026.0S Fort Pulaski 0000 59 59 60/ 12/ 15 1026.5 Sapelo Island 0000 62 50/ 7 1026.0 $$ ANZ835-935-AMZ111-154-330-350-352-354-370-450-454-472-190100- ...C-MAN and Buoy Observations... STATION/POSITION TIME TEMP WIND PRES WAVE SWELL AIR SEA DIR/SP/G HT/PER HT/PER/DIR (UTC) (F) (DEG/KT/KT) (MB) (FT/S) (FT/S/D) Buoy 41004 0010 67 68 70/ 17/ 21 1025.7 Buoy 41008 2350 60 59 70/ 4/ 6 1025.2R 2/ 9 2/100/ 9 Folly Beach CMAN 0000 58 50/ 17/ 20 1027.2R Capers Nearshore 2308 54 56 60/ 17/ 23 1025.9R Fripp Nearshore 0008 55 56 50/ 14/ 19 1025.2S STATION/POSITION TIME TEMP WIND PRES WAVE SWELL AIR SEA DIR/SP/G HT/PER HT/PER/DIR (UTC) (F) (DEG/KT/KT) (MB) (FT/S) (FT/S/D) 5E St. Marys GA 0000 60 N/A 2/10 Frying Pan Buoy 0010 62 66 50/ 19/ 23 1027.2 Buoy 41025 0010 54 73 20/ 19/ 23 1030.5 Cape Lookout NC 0000 50/ 21/ 24 1030.4R Buoy 41002 2350 69 73 60/ 17/ 21 1026.2R 5/ 6 2/110/ 9 Buoy 41010 NOT AVBL St Augustine FL 0000 63 61 CALM 1024.8R $$

USA.gov is the U.S. government's official web portal to all federal, state and local government web resources and services.